#timestamp,LO_Frequency,Hit,StdDev 
1667278815.9,286047001.0,N
1667278835.7,286047000.4,N
1667278855.6,286047000.2,N
1667278875.4,286047001.9,N
1667278895.2,286047001.8,N
1667278915.1,286047002.6,N
1667278916.0,286047002.6,N
1667278935.8,286047002.1,N
1667278955.7,286046999.8,N
1667278975.5,286046998.7,N
1667278995.3,286046999.0,N
1667279015.2,286046998.2,N
1667279035.0,286047000.2,N
1667279035.9,286047000.2,N
1667279055.8,286047001.9,N
1667279075.6,286047002.0,N
1667279095.4,286047001.8,N
1667279115.3,286047001.4,N
1667279135.1,286047001.4,N
1667279155.9,286047003.9,N
1667279175.7,286047001.6,N
1667279195.5,286047000.0,N
1667279215.4,286047001.2,N
1667279235.2,286046996.6,N
1667279255.0,286046998.8,N
1667279255.9,286046998.8,N
1667279275.8,286046998.1,N
1667279295.6,286046999.7,N
1667279315.5,286047000.0,N
1667279335.3,286047000.7,N
1667279355.1,286046998.6,N
1667279375.9,286047000.7,N
1667279395.7,286046998.6,N
1667279415.5,286047001.0,N
1667279435.4,286047000.0,N
1667279455.2,286047001.0,N
1667279475.1,286047000.3,N
1667279476.0,286047000.3,N
1667279495.8,286047000.5,N
1667279515.6,286046999.9,N
1667279535.5,286047002.2,N
1667279555.3,286047002.2,N
1667279575.1,286047001.5,N
1667279595.9,286047002.8,N
1667279615.7,286047000.1,N
1667279635.6,286047001.1,N
1667279655.4,286047002.7,N
1667279675.2,286046999.8,N
1667279695.1,286047000.3,N
1667279696.0,286047000.3,N
1667279715.8,286046998.6,N
1667279735.6,286047000.6,N
1667279755.5,286047001.4,N
1667279775.3,286047002.5,N
1667279795.2,286047004.4,Y
1667279815.9,286047002.2,P
1667279835.7,286047002.4,N
1667279855.6,286047004.2,P
1667279875.4,286047001.8,N
1667279895.2,286047004.3,Y
1667279915.1,286046996.9,P
1667279916.0,286046996.9,N
1667279935.8,286046996.6,N
1667279955.7,286046998.2,N
1667279975.5,286047002.8,N
1667279995.3,286047000.3,N
1667280015.2,286046998.9,N
1667280035.0,286046996.5,N
1667280035.9,286046996.5,N
1667280055.8,286047001.1,N
1667280075.6,286046999.9,N
1667280095.4,286047001.1,N
1667280115.3,286047001.0,N
1667280135.1,286046999.1,N
1667280155.9,286046998.8,N
1667280175.7,286046999.3,N
1667280195.5,286046996.6,N
1667280215.4,286046996.5,N
1667280235.2,286046999.0,N
1667280255.0,286046998.6,N
1667280255.9,286046998.6,N
1667280275.8,286046998.3,N
1667280295.6,286047000.7,N
1667280315.5,286046998.8,N
1667280335.3,286046998.4,N
1667280355.1,286046999.4,N
1667280375.9,286046998.6,N
1667280395.7,286046998.4,N
1667280415.6,286047000.5,N
1667280435.4,286046998.6,N
1667280455.2,286046999.8,N
1667280475.1,286047000.3,N
1667280476.0,286047000.3,N
1667280495.8,286047000.9,N
1667280515.7,286047000.4,N
1667280535.5,286047002.4,N
1667280555.3,286047000.7,N
1667280575.2,286046996.8,N
1667280595.9,286046999.3,N
1667280615.7,286046997.8,N
1667280635.6,286046996.8,N
1667280655.4,286046996.1,N
1667280675.3,286046999.2,N
1667280695.1,286046998.3,N
1667280696.0,286046998.3,N
1667280715.8,286047001.0,N
1667280735.7,286047000.0,N
1667280755.5,286046998.1,N
1667280775.3,286046998.2,N
1667280795.2,286046998.9,N
1667280815.0,286046998.2,N
1667280815.9,286046998.2,N
1667280835.8,286047000.7,N
1667280855.6,286047000.1,N
1667280875.4,286047001.2,N
1667280895.3,286046999.3,N
1667280915.1,286046999.4,N
1667280935.8,286047001.0,N
1667280955.7,286047002.2,N
1667280975.5,286047001.7,N
1667280995.4,286047001.6,N
1667281015.2,286047001.6,N
1667281035.0,286046996.5,N
1667281035.9,286046996.5,N
1667281055.8,286047000.5,N
1667281075.6,286046999.2,N
1667281095.4,286046997.3,N
1667281115.3,286046996.6,N
1667281135.1,286046998.5,N
1667281155.9,286047000.8,N
1667281175.7,286047002.4,N
1667281195.5,286046998.5,N
1667281215.4,286047001.1,N
1667281235.2,286047000.8,N
1667281255.0,286047000.8,N
1667281256.0,286047000.8,N
1667281275.8,286046999.4,N
1667281325.7,286047001.1,E
1667281335.6,286047000.8,N
1667281355.4,286046997.2,P
1667281375.3,286046999.0,N
1667281395.1,286046997.6,N
1667281415.8,286046996.2,N
1667281435.7,286046993.7,Y
1667281455.5,286046997.2,P
1667281475.4,286046999.0,N
1667281495.2,286046998.2,N
1667281515.0,286047000.7,N
1667281515.9,286047000.7,N
1667281535.8,286047000.0,N
1667281555.6,286047001.0,N
1667281575.4,286046998.4,N
1667281595.3,286046998.2,N
1667281615.1,286046998.3,N
1667281635.9,286046998.2,N
1667281655.7,286047001.0,N
1667281675.5,286046999.7,N
1667281695.4,286047002.7,N
1667281715.2,286047001.8,N
1667281735.0,286046999.7,N
1667281736.0,286046999.7,N
1667281755.8,286046998.1,N
1667281775.6,286046999.4,N
1667281795.5,286046999.3,N
1667281815.3,286046996.5,N
1667281835.1,286046999.1,N
1667281855.9,286046999.1,N
1667281875.7,286046996.9,N
1667281895.5,286046998.7,N
1667281915.4,286046999.0,N
1667281935.2,286046998.6,N
1667281955.1,286046998.1,N
1667281956.0,286046998.1,N
1667281975.8,286047002.6,N
1667281995.7,286046999.9,N
1667282015.5,286047002.7,N
1667282035.3,286047001.7,N
1667282055.2,286047004.1,N
1667282075.9,286047002.9,N
1667282095.7,286047003.0,N
1667282115.6,286047003.5,N
1667282135.4,286047005.8,N
1667282155.3,286047004.9,N
1667282175.1,286047004.6,N
1667282176.0,286047004.6,N
1667282195.8,286047004.7,N
1667282215.7,286047005.1,N
1667282235.5,286047006.0,N
1667282255.3,286047003.6,N
1667282275.2,286047003.2,N
1667282295.0,286047003.6,N
1667282295.9,286047003.6,N
1667282315.8,286047004.1,N
1667282335.6,286047004.1,N
1667282355.4,286047004.1,N
1667282375.3,286047004.2,N
1667282395.1,286047004.4,N
